Terminal Aerodrome Forecast
Issued by NWS Northern Indiana

Home | Current Version | Previous Version | Text Only | Print | Product List | Glossary On
Versions: 1 2 3 4 5 6 7 8 9 10 11 12 13 14 15 16 17
000
FTUS43 KIWX 292331
TAFFWA
TAF
KFWA 292331Z 3000/3024 07019KT 5SM BR OVC008
     FM300300 08017KT 2SM BR OVC006
     FM300500 09011KT 3SM SHRA VCTS OVC005CB WS020/19040KT
     FM301400 11010KT 3SM BR OVC008
     FM301800 20014G22KT P6SM VCSH BKN035=

USA.gov is the U.S. government's official web portal to all federal, state and local government web resources and services.